Regional Weather Roundup
Issued by NWS

Home | Current Version | Previous Version | Text Only | Print | Product List | Glossary On
Versions: 1 2 3 4 5 6 7 8 9 10 11 12 13 14 15 16 17 18 19 20 21 22 23 24 25 26 27 28 29 30 31 32 33 34 35 36 37 38 39 40 41 42 43 44 45 46 47 48 49 50
000
ASUS44 KOUN 050310
RWROK

WEATHER ROUNDUP FOR OKLAHOMA
NATIONAL WEATHER SERVICE NORMAN OK
1000 PM CDT WED MAY 04 2016

NOTE: "FAIR" INDICATES FEW OR NO CLOUDS BELOW 12,000 FEET WITH NO
      SIGNIFICANT WEATHER AND/OR OBSTRUCTIONS TO VISIBILITY.

OKZ001>007-009>012-014-015-017-050400-
NORTHWEST OKLAHOMA AND THE PANHANDLE

CITY           SKY/WX    TMP DP  RH WIND       PRES   REMARKS
GAGE           CLEAR     62  45  53 E3        30.08R
GUYMON         CLEAR     64  43  46 VRB5      30.09S
ENID/WOODRING  CLEAR     55  46  71 N3        30.03R
$$

OKZ016-021>023-033>039-044-045-050400-
SOUTHWEST OKLAHOMA

CITY           SKY/WX    TMP DP  RH WIND       PRES   REMARKS
LAWTON/REGL    CLEAR     66  50  56 N7        30.02R
LAWTON/FT SILL CLEAR     68  51  54 N5        30.02R
FREDERICK      CLEAR     68  50  52 N5        30.00R
CLINTON        CLEAR     63  48  58 NE6       30.08R
HOBART         CLEAR     64  50  60 NE9       30.05R
ALTUS AFB      CLEAR     65  47  50 NE7       30.03R
$$

OKZ018>020-024>031-050400-
CENTRAL OKLAHOMA

CITY           SKY/WX    TMP DP  RH WIND       PRES   REMARKS
OKLAHOMA CITY  CLEAR     67  43  41 NE8       30.03R
OKC/WILEY POST CLEAR     65  45  48 N6        30.03R
OKC/TINKER AFB CLEAR     65  41  40 N8        30.02R
STILLWATER     PTCLDY    57  39  51 N6        30.02R
GUTHRIE        CLEAR     59  43  55 CALM      30.03R
$$

OKZ008-013-054>072-050400-
NORTHEAST OKLAHOMA

CITY           SKY/WX    TMP DP  RH WIND       PRES   REMARKS
TULSA          CLEAR     62  43  49 NW5       29.98R
TULSA/JONES    CLEAR     59  44  57 N3        30.00R
PONCA CITY     CLEAR     56  43  61 N3        30.02R
BARTLESVILLE   CLEAR     51  43  74 CALM      30.02R
MUSKOGEE       CLEAR     59  44  57 N7        29.99R
$$

OKZ032-040>043-046>053-073>077-050400-
SOUTH CENTRAL/SOUTHEAST OKLAHOMA

CITY           SKY/WX    TMP DP  RH WIND       PRES   REMARKS
ARDMORE/DWNTWN CLEAR     68  45  42 N3        30.00R
MCALESTER      PTCLDY    56  45  66 CALM      29.99R
$$




USA.gov is the U.S. government's official web portal to all federal, state and local government web resources and services.